• In Hungary
  • List of Countries
  • For 7 days
  • Water Temperature
  • Satellite Maps
  • Weather Map
  • News
  • Weather Widgets
  • user-avatar
    Login

    Hourly Weather Zheleznoe

    Today, 22 July, Sunday

    Time Temperature Precipitation Wind Pressure Humidity
    00:00 +19°C° 0.3 mm 2 mps 743 mmHg 98%
    01:00 +19°C° 0.3 mm 2 mps 743 mmHg 98%
    02:00 +19°C° 0 mm 1 mps 744 mmHg 99%
    03:00 +19°C° 0.2 mm 2 mps 744 mmHg 98%
    04:00 +19°C° 0.2 mm 2 mps 744 mmHg 98%
    05:00 +19°C° 0.2 mm 2 mps 744 mmHg 98%
    06:00 +19°C° 0.1 mm 2 mps 744 mmHg 97%
    07:00 +20°C° 0.1 mm 2 mps 744 mmHg 96%
    08:00 +20°C° 0.1 mm 2 mps 744 mmHg 95%
    09:00 +21°C° 0 mm 3 mps 744 mmHg 92%
    10:00 +21°C° 0 mm 3 mps 744 mmHg 89%
    11:00 +22°C° 0 mm 3 mps 744 mmHg 87%
    12:00 +22°C° 0 mm 3 mps 744 mmHg 81%
    13:00 +24°C° 0 mm 3 mps 744 mmHg 76%
    14:00 +25°C° 0 mm 3 mps 744 mmHg 71%
    15:00 +25°C° 0.1 mm 3 mps 744 mmHg 73%
    16:00 +25°C° 0.1 mm 3 mps 744 mmHg 75%
    17:00 +25°C° 0.1 mm 2 mps 744 mmHg 77%
    18:00 +24°C° 0 mm 2 mps 744 mmHg 82%
    19:00 +21°C° 0 mm 2 mps 744 mmHg 88%
    20:00 +21°C° 0 mm 1 mps 745 mmHg 94%
    21:00 +20°C° 0 mm 1 mps 745 mmHg 95%
    22:00 +20°C° 0 mm 1 mps 745 mmHg 96%
    23:00 +19°C° 0 mm 1 mps 745 mmHg 96%

    Tomorrow, 23 July, Monday

    Time Temperature Precipitation Wind Pressure Humidity
    00:00 +19°C° 0 mm 1 mps 745 mmHg 96%
    01:00 +19°C° 0 mm 1 mps 745 mmHg 96%
    02:00 +19°C° 0 mm 1 mps 745 mmHg 96%
    03:00 +19°C° 0 mm 1 mps 746 mmHg 96%
    04:00 +19°C° 0 mm 1 mps 746 mmHg 95%
    05:00 +18°C° 0 mm 2 mps 746 mmHg 95%
    06:00 +19°C° 0 mm 2 mps 746 mmHg 91%
    07:00 +20°C° 0 mm 2 mps 746 mmHg 87%
    08:00 +21°C° 0 mm 3 mps 746 mmHg 82%
    09:00 +22°C° 0.1 mm 3 mps 746 mmHg 77%
    10:00 +24°C° 0.1 mm 3 mps 746 mmHg 71%
    11:00 +25°C° 0.1 mm 3 mps 746 mmHg 66%
    12:00 +26°C° 0.1 mm 3 mps 746 mmHg 64%
    13:00 +26°C° 0.1 mm 3 mps 746 mmHg 62%
    14:00 +26°C° 0.1 mm 3 mps 746 mmHg 59%
    15:00 +26°C° 0.1 mm 3 mps 746 mmHg 61%
    16:00 +26°C° 0.1 mm 3 mps 746 mmHg 63%
    17:00 +25°C° 0.1 mm 3 mps 746 mmHg 65%
    18:00 +24°C° 0 mm 3 mps 746 mmHg 72%
    19:00 +21°C° 0 mm 2 mps 746 mmHg 80%
    20:00 +19°C° 0 mm 2 mps 746 mmHg 87%
    21:00 +18°C° 0 mm 2 mps 747 mmHg 90%
    22:00 +17°C° 0 mm 2 mps 747 mmHg 92%
    23:00 +16°C° 0 mm 2 mps 747 mmHg 95%

    Day after tomorrow, 24 July, Tuesday

    Time Temperature Precipitation Wind Pressure Humidity
    00:00 +16°C° 0 mm 2 mps 747 mmHg 95%
    01:00 +15°C° 0 mm 2 mps 747 mmHg 96%
    02:00 +15°C° 0 mm 2 mps 747 mmHg 97%
    03:00 +15°C° 0 mm 2 mps 747 mmHg 95%
    04:00 +15°C° 0 mm 2 mps 747 mmHg 94%
    05:00 +15°C° 0 mm 2 mps 747 mmHg 92%
    06:00 +16°C° 0 mm 3 mps 747 mmHg 88%
    07:00 +17°C° 0 mm 3 mps 748 mmHg 85%
    08:00 +18°C° 0 mm 3 mps 748 mmHg 82%
    09:00 +18°C° 0 mm 3 mps 748 mmHg 82%
    10:00 +19°C° 0 mm 3 mps 748 mmHg 83%
    11:00 +19°C° 0 mm 3 mps 748 mmHg 83%
    12:00 +20°C° 0 mm 3 mps 748 mmHg 80%
    13:00 +21°C° 0 mm 3 mps 748 mmHg 78%
    14:00 +22°C° 0 mm 3 mps 748 mmHg 75%
    15:00 +21°C° 0 mm 3 mps 748 mmHg 78%
    16:00 +21°C° 0 mm 3 mps 748 mmHg 81%
    17:00 +20°C° 0 mm 3 mps 748 mmHg 85%
    18:00 +20°C° 0 mm 2 mps 748 mmHg 87%
    19:00 +20°C° 0 mm 2 mps 748 mmHg 90%
    20:00 +19°C° 0 mm 2 mps 748 mmHg 93%
    21:00 +19°C° 0 mm 2 mps 748 mmHg 94%
    22:00 +19°C° 0 mm 2 mps 748 mmHg 95%
    23:00 +19°C° 0 mm 2 mps 748 mmHg 97%

    25 July, Wednesday

    Time Temperature Precipitation Wind Pressure Humidity
    00:00 +18°C° 0 mm 2 mps 748 mmHg 97%
    01:00 +18°C° 0 mm 2 mps 748 mmHg 98%
    02:00 +18°C° 0 mm 2 mps 748 mmHg 98%
    03:00 +18°C° 0.2 mm 2 mps 748 mmHg 98%
    04:00 +18°C° 0.2 mm 2 mps 749 mmHg 97%
    05:00 +19°C° 0.2 mm 2 mps 749 mmHg 97%
    06:00 +20°C° 0 mm 2 mps 749 mmHg 94%
    07:00 +21°C° 0 mm 2 mps 749 mmHg 92%
    08:00 +23°C° 0 mm 2 mps 750 mmHg 89%
    09:00 +24°C° 0 mm 3 mps 750 mmHg 80%
    10:00 +26°C° 0 mm 3 mps 750 mmHg 71%
    11:00 +28°C° 0 mm 3 mps 750 mmHg 62%
    12:00 +28°C° 0.2 mm 3 mps 750 mmHg 58%
    13:00 +29°C° 0.2 mm 3 mps 750 mmHg 54%
    14:00 +30°C° 0.2 mm 3 mps 750 mmHg 51%
    15:00 +29°C° 0 mm 3 mps 750 mmHg 54%
    16:00 +29°C° 0 mm 2 mps 750 mmHg 58%
    17:00 +28°C° 0 mm 2 mps 750 mmHg 61%
    18:00 +27°C° 0 mm 2 mps 750 mmHg 67%
    19:00 +25°C° 0 mm 2 mps 750 mmHg 73%
    20:00 +23°C° 0 mm 2 mps 750 mmHg 78%
    21:00 +21°C° 0 mm 2 mps 750 mmHg 81%
    22:00 +20°C° 0 mm 2 mps 750 mmHg 83%
    23:00 +19°C° 0 mm 2 mps 750 mmHg 85%

    26 July, Thursday

    Time Temperature Precipitation Wind Pressure Humidity
    00:00 +18°C° 0 mm 2 mps 751 mmHg 85%
    01:00 +18°C° 0 mm 2 mps 751 mmHg 85%
    02:00 +17°C° 0 mm 2 mps 751 mmHg 85%
    03:00 +17°C° 0 mm 2 mps 751 mmHg 84%
    04:00 +18°C° 0 mm 2 mps 751 mmHg 84%
    05:00 +18°C° 0 mm 2 mps 752 mmHg 83%
    06:00 +20°C° 0 mm 2 mps 752 mmHg 77%
    07:00 +21°C° 0 mm 2 mps 752 mmHg 72%
    08:00 +24°C° 0 mm 2 mps 752 mmHg 66%
    09:00 +26°C° 0 mm 3 mps 752 mmHg 60%
    10:00 +27°C° 0 mm 3 mps 752 mmHg 54%
    11:00 +29°C° 0 mm 4 mps 752 mmHg 49%
    12:00 +30°C° 0 mm 4 mps 752 mmHg 46%
    13:00 +30°C° 0 mm 4 mps 752 mmHg 43%
    14:00 +32°C° 0 mm 4 mps 752 mmHg 40%
    15:00 +31°C° 0 mm 3 mps 752 mmHg 45%
    16:00 +30°C° 0 mm 3 mps 752 mmHg 50%
    17:00 +30°C° 0 mm 2 mps 752 mmHg 55%
    18:00 +28°C° 0 mm 2 mps 752 mmHg 62%
    19:00 +26°C° 0 mm 2 mps 752 mmHg 69%
    20:00 +24°C° 0 mm 2 mps 752 mmHg 75%
    21:00 +23°C° 0 mm 2 mps 753 mmHg 79%
    22:00 +21°C° 0 mm 2 mps 753 mmHg 82%
    23:00 +20°C° 0 mm 2 mps 753 mmHg 85%

    27 July, Friday

    Time Temperature Precipitation Wind Pressure Humidity
    00:00 +20°C° 0 mm 2 mps 753 mmHg 86%
    01:00 +19°C° 0 mm 2 mps 753 mmHg 88%
    02:00 +19°C° 0 mm 2 mps 753 mmHg 89%
    03:00 +19°C° 0 mm 2 mps 754 mmHg 89%
    04:00 +19°C° 0 mm 2 mps 754 mmHg 89%
    05:00 +20°C° 0 mm 2 mps 754 mmHg 89%
    06:00 +21°C° 0 mm 2 mps 754 mmHg 82%
    07:00 +24°C° 0 mm 2 mps 754 mmHg 76%
    08:00 +26°C° 0 mm 2 mps 754 mmHg 70%
    09:00 +28°C° 0 mm 3 mps 754 mmHg 63%
    10:00 +29°C° 0 mm 3 mps 754 mmHg 56%
    11:00 +32°C° 0 mm 4 mps 754 mmHg 49%
    12:00 +31°C° 0 mm 3 mps 754 mmHg 48%
    13:00 +31°C° 0 mm 3 mps 754 mmHg 47%
    14:00 +33°C° 0 mm 3 mps 754 mmHg 45%
    15:00 +31°C° 0 mm 3 mps 754 mmHg 50%
    16:00 +31°C° 0 mm 2 mps 754 mmHg 54%
    17:00 +30°C° 0 mm 2 mps 754 mmHg 58%
    18:00 +28°C° 0.5 mm 2 mps 754 mmHg 67%
    19:00 +26°C° 0.5 mm 2 mps 754 mmHg 76%
    20:00 +24°C° 0.5 mm 2 mps 754 mmHg 85%
    21:00 +23°C° 0 mm 2 mps 754 mmHg 87%
    22:00 +21°C° 0 mm 2 mps 754 mmHg 89%
    23:00 +21°C° 0 mm 2 mps 755 mmHg 91%
    Show more